Regional Weather Roundup
Issued by NWS

Home | Current Version | Previous Version | Graphics & Text | Print | Product List | Glossary On
Versions: 1 2 3 4 5 6 7 8 9 10 11 12 13 14 15 16 17 18 19 20 21 22 23 24 25 26 27 28
000
ASUS45 KBOI 251710
RWRID

IDAHO REGIONAL WEATHER ROUNDUP
NATIONAL WEATHER SERVICE BOISE ID
1100 AM MDT THU AUG 25 2016

NOTE: "FAIR" INDICATES FEW OR NO CLOUDS BELOW 12000 FEET
WITH NO SIGNIFICANT WEATHER AND/OR OBSTRUCTIONS TO VISIBILITY

IDZ012-014-251800-
SOUTHWEST IDAHO


CITY           SKY/WX    TMP DP  RH WIND       PRES   REMARKS
BOISE          SUNNY     73  33  23 S12       30.13S
CALDWELL       SUNNY     72  40  31 E12       30.12F
MOUNTAIN HOME  SUNNY     70  36  28 SE15      30.13F
$$

IDZ016-017-251800-
SOUTHCENTRAL IDAHO


CITY           SKY/WX    TMP DP  RH WIND       PRES   REMARKS
JEROME         SUNNY     66  39  37 E12       30.17F
TWIN FALLS     SUNNY     64  39  39 E17       30.17S
$$

IDZ019>023-251800-
SOUTHEAST IDAHO


CITY           SKY/WX    TMP DP  RH WIND       PRES   REMARKS
IDAHO FALLS    MOSUNNY   61  37  41 N10       30.22F SMOKE
POCATELLO      SUNNY     63  37  38 NE10      30.19F
REXBURG        SUNNY     61  38  42 NE6       30.23F
$$

IDZ006-010-011-018-031-032-251800-
CENTRAL IDAHO MOUNTAINS


CITY           SKY/WX    TMP DP  RH WIND       PRES   REMARKS
MCCALL         SUNNY     65  35  33 SE3       30.22S
HAILEY         SUNNY     64  37  36 SE3       30.22F
STANLEY          N/A     58  32  37 VRB3      30.29F
SALMON         SUNNY     59  37  44 CALM      30.24F
CHALLIS        SUNNY     60  34  37 E3        30.25F
$$

IDZ002-004-006-007-026-251800-
NORTHERN IDAHO


CITY           SKY/WX    TMP DP  RH WIND       PRES   REMARKS
LEWISTON       SUNNY     71  43  36 E3        30.13F
LOWELL           N/A     63  46  54 CALM      30.16F
COEUR D`ALENE  SUNNY     70  45  40 NE8       30.18F
MULLAN PASS    SUNNY     54  34  46 VRB3      30.32S
$$




USA.gov is the U.S. government's official web portal to all federal, state and local government web resources and services.